Погода в Латышовке

Россия / Республика Мордовия     53°57′09″N   44°24′28″E
темп.,
°C
ветер,
м/с
пор.,
м/с
влажн.,
%
обл.,
%
осадки,
мм/ч
давл.,
гПа
погр.,
м
6 мая, чт
чт600:00+8юз41277100 0.0 1013285
03:00+8юз5137755 0.0 1014329
06:00+8юз411845 0.0 1015245
09:00+13ююз6969100 0.0 1015546
12:00+16ююз7958100 0.0 10151497
15:00+16ююз696098 0.0 10141792
18:00+15ююз51167100 0.0 1013455
21:00+11ю41180100 0.1 1014220
7 мая, пт
пт700:00+11ю61474100 0.0 1013352
03:00+10ю61475100 0.0 1012343
06:00+11ю61468100 0.0 1012369
09:00+13ю71271100 0.1 1011866
12:00+14юз71171100 0.4 10121350
15:00+7сз4689100 2.9 1015454
18:00+9ссз2478100 0.0 1016526
21:00+6ююв22890 0.0 101811
8 мая, сб
сб800:00+5ююв22905 0.0 101819
03:00+5ю118974 0.0 101810
06:00+6вюв358796 0.0 1018153
09:00+11вюв576698 0.0 1016702
12:00+15ююв686293 0.0 10141251
15:00+17ю71157100 0.0 10111620
18:00+15ююз61266100 0.0 1010567
21:00+13ююв61471100 0.1 1010456
9 мая, вс
вс900:00+13ю71580100 0.2 1009572
03:00+12ююз61389100 1.4 1009584
06:00+9зсз4792100 0.1 1011401
09:00+9зсз4589100 0.1 1013519
12:00+7сз4684100 0.6 1015531
15:00+7ссз3593100 4.9 1017479
18:00+6с3693100 3.5 1019609
21:00+7ссв4892100 4.8 1020582
10 мая, пн
пн1000:00+7с499293 0.1 1022450
03:00+6ссв51192100 0.1 1024387
06:00+6ссв6129037 0.0 1026535
09:00+9св71173100 0.0 1027755
12:00+9св61075100 0.0 1028794
15:00+10всв51076100 0.0 1028559
18:00+11всв4107989 0.0 1028556
21:00+7св4109110 0.0 1029195